Total_Precipitation_Accumulation
0.03 0.06 0.11 0.14 0.15 0.12 0.08 0.05 0.07 0.10 0.19 0.18 0.23 0.28 0.36 0.33 0.27 0.20 0.17 0.17 0.17 0.22 0.35 0.39 0.40 0.38 0.38 0.44 0.53 0.62 0.73 0.89 1.05 1.16 1.16 1.08 1.05 1.06 1.10 1.14 1.17 1.29 1.30 1.25
0.03 0.06 0.10 0.12 0.13 0.10 0.07 0.05 0.05 0.07 0.12 0.15 0.24 0.28 0.30 0.27 0.27 0.26 0.27 0.23 0.24 0.28 0.41 0.41 0.38 0.39 0.41 0.47 0.54 0.58 0.67 0.77 0.93 1.11 1.18 1.14 1.11 1.19 1.26 1.30 1.41 1.47 1.41 1.37
0.04 0.07 0.09 0.15 0.12 0.08 0.08 0.07 0.07 0.09 0.13 0.16 0.23 0.33 0.39 0.37 0.40 0.36 0.29 0.22 0.22 0.28 0.34 0.39 0.35 0.33 0.35 0.40 0.51 0.60 0.73 0.85 0.92 1.04 1.14 1.19 1.19 1.26 1.33 1.34 1.35 1.39 1.38 1.33
0.09 0.10 0.15 0.15 0.11 0.10 0.10 0.10 0.14 0.17 0.18 0.21 0.25 0.31 0.36 0.36 0.35 0.35 0.35 0.38 0.41 0.45 0.46 0.45 0.40 0.39 0.44 0.51 0.60 0.67 0.75 0.84 0.91 1.03 1.15 1.26 1.38 1.43 1.47 1.52 1.51 1.49 1.41 1.35
0.16 0.14 0.17 0.19 0.17 0.16 0.18 0.21 0.21 0.29 0.34 0.33 0.32 0.32 0.38 0.39 0.38 0.43 0.40 0.38 0.47 0.57 0.63 0.56 0.55 0.55 0.60 0.70 0.79 0.84 0.87 0.94 1.02 1.11 1.24 1.33 1.39 1.46 1.54 1.59 1.56 1.56 1.55 1.53
0.24 0.26 0.27 0.25 0.27 0.22 0.22 0.39 0.34 0.38 0.45 0.44 0.45 0.57 0.68 0.67 0.55 0.52 0.51 0.48 0.54 0.55 0.57 0.65 0.69 0.70 0.72 0.79 0.89 0.97 0.99 1.01 1.07 1.23 1.32 1.33 1.32 1.39 1.42 1.45 1.41 1.39 1.40 1.45
0.35 0.34 0.31 0.29 0.29 0.30 0.50 0.71 0.67 0.68 0.66 0.57 0.62 0.69 0.68 0.60 0.63 0.58 0.60 0.66 0.62 0.60 0.63 0.66 0.65 0.68 0.76 0.84 0.94 1.00 1.02 1.01 1.08 1.19 1.33 1.36 1.40 1.38 1.34 1.32 1.32 1.35 1.37 1.40
0.54 0.62 0.62 0.43 0.44 0.60 0.75 0.68 0.79 0.71 0.63 0.61 0.60 0.59 0.56 0.55 0.63 0.66 0.67 0.73 0.69 0.62 0.58 0.59 0.62 0.65 0.74 0.84 0.86 0.91 0.93 0.95 0.99 1.02 1.03 1.11 1.26 1.32 1.32 1.32 1.33 1.37 1.44 1.46
0.73 0.76 0.68 0.57 0.59 0.63 0.57 0.55 0.61 0.58 0.53 0.55 0.52 0.50 0.47 0.52 0.55 0.56 0.60 0.65 0.65 0.65 0.63 0.64 0.68 0.72 0.79 0.82 0.86 0.88 0.94 0.98 0.98 0.98 1.03 1.10 1.16 1.19 1.17 1.13 1.09 1.10 1.24 1.34
0.94 0.92 0.79 0.65 0.52 0.53 0.51 0.51 0.53 0.54 0.57 0.56 0.52 0.48 0.47 0.48 0.51 0.57 0.64 0.65 0.65 0.65 0.67 0.75 0.80 0.85 0.82 0.79 0.84 0.92 0.97 0.98 1.02 1.07 1.04 1.04 1.11 1.09 1.05 1.03 1.00 0.99 1.16 1.30
1.30 1.34 1.12 0.94 0.78 0.68 0.62 0.60 0.61 0.64 0.63 0.66 0.64 0.61 0.59 0.51 0.49 0.50 0.53 0.54 0.57 0.65 0.70 0.77 0.79 0.81 0.84 0.83 0.87 0.93 0.91 0.89 0.96 1.02 0.98 0.93 1.01 1.08 1.00 0.99 1.03 1.05 1.20 1.42
1.49 1.38 1.31 1.19 0.97 0.83 0.77 0.77 0.71 0.73 0.76 0.76 0.73 0.69 0.64 0.61 0.52 0.45 0.46 0.52 0.58 0.64 0.70 0.76 0.77 0.81 0.81 0.82 0.88 0.94 0.97 0.92 0.87 0.87 0.89 0.92 0.96 0.99 0.98 0.87 0.87 0.84 0.91 1.04
1.09 1.11 1.12 1.05 0.94 0.80 0.78 0.76 0.78 0.76 0.77 0.76 0.73 0.66 0.57 0.58 0.61 0.55 0.54 0.57 0.63 0.69 0.72 0.74 0.73 0.73 0.73 0.78 0.89 0.96 0.98 0.95 0.87 0.78 0.74 0.75 0.79 0.85 0.89 0.85 0.68 0.63 0.62 0.63
1.06 1.04 1.10 1.02 0.92 0.78 0.77 0.67 0.64 0.63 0.62 0.63 0.66 0.63 0.57 0.57 0.60 0.64 0.68 0.71 0.78 0.81 0.76 0.70 0.68 0.68 0.66 0.68 0.73 0.74 0.76 0.80 0.76 0.70 0.68 0.66 0.67 0.68 0.70 0.78 0.81 0.72 0.60 0.52
0.96 0.96 1.09 1.03 0.90 0.79 0.78 0.70 0.59 0.53 0.51 0.55 0.57 0.56 0.57 0.62 0.67 0.72 0.76 0.82 0.87 0.84 0.76 0.69 0.66 0.67 0.70 0.72 0.71 0.69 0.73 0.72 0.65 0.65 0.67 0.70 0.73 0.71 0.69 0.73 0.83 0.89 0.83 0.61
0.87 0.89 0.91 0.93 0.98 0.92 0.83 0.77 0.70 0.62 0.54 0.53 0.55 0.54 0.52 0.55 0.62 0.69 0.75 0.85 0.94 0.94 0.83 0.74 0.67 0.59 0.57 0.66 0.71 0.67 0.68 0.74 0.68 0.64 0.64 0.69 0.72 0.70 0.73 0.82 0.90 1.00 1.00 0.75
0.90 0.92 0.85 0.84 0.91 0.89 0.82 0.75 0.71 0.68 0.63 0.60 0.57 0.55 0.54 0.54 0.62 0.73 0.77 0.77 0.78 0.77 0.76 0.72 0.61 0.50 0.49 0.56 0.59 0.61 0.59 0.61 0.62 0.58 0.63 0.67 0.69 0.71 0.73 0.82 0.93 0.99 0.94 0.71
0.81 0.75 0.70 0.70 0.74 0.72 0.73 0.73 0.70 0.65 0.62 0.61 0.58 0.53 0.50 0.54 0.67 0.80 0.85 0.83 0.73 0.65 0.63 0.60 0.49 0.42 0.44 0.49 0.53 0.56 0.55 0.54 0.54 0.55 0.57 0.59 0.62 0.68 0.75 0.87 0.97 1.01 0.89 0.71
0.71 0.67 0.62 0.62 0.60 0.59 0.62 0.65 0.66 0.63 0.56 0.52 0.52 0.50 0.44 0.45 0.58 0.71 0.75 0.84 0.89 0.83 0.69 0.55 0.47 0.37 0.37 0.41 0.42 0.44 0.46 0.48 0.51 0.55 0.57 0.54 0.55 0.61 0.65 0.74 0.87 0.93 0.84 0.77
0.68 0.68 0.63 0.60 0.57 0.52 0.52 0.52 0.55 0.57 0.52 0.45 0.41 0.39 0.36 0.39 0.53 0.66 0.72 0.81 0.91 0.86 0.73 0.59 0.39 0.30 0.28 0.30 0.33 0.31 0.32 0.32 0.34 0.37 0.39 0.41 0.45 0.50 0.52 0.57 0.69 0.76 0.73 0.78
0.71 0.69 0.64 0.58 0.58 0.53 0.48 0.42 0.42 0.46 0.46 0.46 0.43 0.40 0.37 0.37 0.43 0.57 0.80 0.94 0.82 0.70 0.64 0.63 0.40 0.25 0.22 0.24 0.30 0.28 0.28 0.29 0.29 0.31 0.32 0.34 0.38 0.43 0.49 0.56 0.61 0.65 0.70 0.75
0.73 0.67 0.59 0.53 0.52 0.53 0.50 0.43 0.38 0.38 0.39 0.41 0.39 0.35 0.35 0.35 0.39 0.49 0.64 0.81 0.76 0.68 0.49 0.46 0.38 0.24 0.20 0.18 0.17 0.22 0.25 0.31 0.34 0.37 0.38 0.39 0.41 0.45 0.50 0.53 0.56 0.60 0.66 0.73
0.75 0.70 0.62 0.53 0.47 0.46 0.46 0.45 0.40 0.37 0.37 0.35 0.34 0.33 0.34 0.34 0.37 0.52 0.61 0.55 0.55 0.56 0.39 0.33 0.34 0.28 0.21 0.17 0.17 0.20 0.22 0.27 0.32 0.34 0.35 0.36 0.41 0.45 0.50 0.52 0.55 0.57 0.68 0.73
0.68 0.66 0.62 0.59 0.52 0.46 0.47 0.46 0.41 0.37 0.35 0.35 0.35 0.35 0.35 0.35 0.36 0.39 0.47 0.52 0.54 0.54 0.42 0.40 0.34 0.27 0.22 0.21 0.25 0.26 0.25 0.27 0.28 0.29 0.30 0.34 0.40 0.45 0.54 0.61 0.64 0.63 0.66 0.64
0.62 0.59 0.56 0.57 0.52 0.45 0.41 0.39 0.38 0.38 0.35 0.34 0.34 0.35 0.33 0.32 0.36 0.40 0.42 0.45 0.50 0.48 0.43 0.43 0.39 0.36 0.31 0.33 0.36 0.36 0.33 0.33 0.33 0.32 0.34 0.39 0.46 0.55 0.61 0.65 0.64 0.60 0.58 0.57
0.52 0.48 0.48 0.46 0.41 0.38 0.37 0.37 0.39 0.39 0.38 0.37 0.37 0.37 0.33 0.32 0.37 0.43 0.50 0.50 0.49 0.48 0.43 0.38 0.35 0.37 0.36 0.41 0.46 0.47 0.44 0.42 0.41 0.41 0.44 0.50 0.57 0.63 0.61 0.54 0.52 0.51 0.49 0.46
0.46 0.44 0.44 0.43 0.42 0.38 0.35 0.35 0.39 0.45 0.44 0.41 0.41 0.38 0.37 0.41 0.46 0.51 0.52 0.52 0.52 0.50 0.44 0.39 0.34 0.31 0.33 0.37 0.40 0.44 0.46 0.46 0.45 0.46 0.49 0.52 0.52 0.50 0.45 0.41 0.42 0.40 0.37 0.37